Litchfield, IL

1:17 PM CST on December 14, 2017 (GMT -0600)
Litchfield

Weather History for K3LF - February, 2013

Change the Weather History Date:

Friday, February 15, 2013

  Actual Average (KALN) Record (KALN)
Temperature  
Mean Temperature 30 °F -  
Max Temperature 36 °F 43 °F 75 °F (2005)
Min Temperature 24 °F 28 °F 5 °F (2014)
Degree Days  
Heating Degree Days 34    
Moisture  
Dew Point 21 °F    
Average Humidity 69    
Maximum Humidity 91    
Minimum Humidity 45    
Precipitation  
Precipitation 0.00 in - - ()
Sea Level Pressure  
Sea Level Pressure 30.19 in    
Wind  
Wind Speed 10 mph (NW)    
Max Wind Speed 18 mph    
Max Gust Speed 23 mph    
Visibility 10 miles    
Events      
Averages and records for this station are not official NWS values.
T = Trace of Precipitation, MM = Missing Value Source: NWS Daily Summary

Daily Weather History Graph

Daily Weather History Graph

Search for Another Location

Airport or City:

Trip Planner

Search our weather history database for the weather conditions in past years. The results will help you decide how hot, cold, wet, or windy it might be!

Date:

Astronomy

Feb. 15, 2013 Rise Set
Actual Time 6:49 AM CST 5:36 PM CST
Civil Twilight 6:22 AM CST 6:03 PM CST
Nautical Twilight 5:51 AM CST 6:34 PM CST
Astronomical Twilight 5:20 AM CST 7:05 PM CST
Moon 9:28 AM CST (2/15) 11:34 PM CST (2/15)
Length of Visible Light 11h 40m
Length of Day
10h 46m
Waxing Crescent, 30% of the Moon is Illuminated
Feb 15
Waxing Crescent
Feb 17
First Quarter
Feb 25
Full
Mar 4
Last Quarter
Mar 11
New

Hourly Weather History & Observations

Time (CST) Temp. Windchill Dew Point Humidity Pressure Visibility Wind Dir Wind Speed Gust Speed Precip Events Conditions
12:15 AM 36.7 °F 31.2 °F 32.0 °F 83% 30.05 in 10.0 mi WNW 6.9 mph - N/A   Overcast
12:55 AM 34.9 °F 29.0 °F 31.5 °F 87% 30.05 in 10.0 mi NNW 6.9 mph - N/A   Scattered Clouds
1:15 AM 34.0 °F 27.2 °F 31.1 °F 89% 30.06 in 10.0 mi NNW 8.1 mph - N/A   Scattered Clouds
1:35 AM 33.3 °F 27.1 °F 30.9 °F 91% 30.06 in 10.0 mi NNW 6.9 mph - N/A   Clear
1:55 AM 33.4 °F 26.6 °F 30.0 °F 87% 30.07 in 10.0 mi NNW 8.1 mph - N/A   Clear
2:15 AM 33.4 °F 25.9 °F 29.3 °F 85% 30.08 in 10.0 mi NW 9.2 mph - N/A   Clear
2:35 AM 32.9 °F 25.9 °F 28.9 °F 85% 30.08 in 10.0 mi NW 8.1 mph - N/A   Clear
2:55 AM 32.2 °F 24.4 °F 28.4 °F 86% 30.08 in 10.0 mi NW 9.2 mph - N/A   Clear
3:15 AM 32.0 °F 24.2 °F 28.2 °F 86% 30.09 in 10.0 mi NW 9.2 mph - N/A   Clear
3:35 AM 32.0 °F 24.8 °F 28.4 °F 87% 30.09 in 10.0 mi NW 8.1 mph - N/A   Clear
3:55 AM 31.8 °F 23.9 °F 28.4 °F 87% 30.10 in 10.0 mi NW 9.2 mph - N/A   Clear
4:15 AM 31.1 °F 23.7 °F 28.4 °F 90% 30.10 in 10.0 mi NW 8.1 mph - N/A   Clear
4:35 AM 31.1 °F 23.1 °F 28.0 °F 88% 30.11 in 10.0 mi NW 9.2 mph - N/A   Clear
4:55 AM 30.7 °F 22.6 °F 28.2 °F 90% 30.12 in 10.0 mi NW 9.2 mph - N/A   Clear
5:15 AM 31.1 °F 23.1 °F 28.0 °F 88% 30.13 in 10.0 mi NW 9.2 mph - N/A   Mostly Cloudy
5:35 AM 30.0 °F 21.1 °F 26.6 °F 87% 30.13 in 10.0 mi NW 10.4 mph - N/A   Scattered Clouds
5:55 AM 29.7 °F 20.7 °F 26.2 °F 87% 30.15 in 10.0 mi NW 10.4 mph - N/A   Clear
6:15 AM 29.3 °F 18.6 °F 25.2 °F 85% 30.15 in 10.0 mi NW 13.8 mph - N/A   Clear
6:35 AM 29.8 °F 19.3 °F 25.2 °F 83% 30.16 in 10.0 mi NNW 13.8 mph 17.3 mph N/A   Mostly Cloudy
6:55 AM 29.8 °F 19.8 °F 24.6 °F 81% 30.17 in 10.0 mi NW 12.7 mph - N/A   Overcast
7:15 AM 29.7 °F 19.1 °F 24.4 °F 81% 30.18 in 10.0 mi NNW 13.8 mph - N/A   Overcast
7:35 AM 29.1 °F 17.5 °F 23.4 °F 79% 30.19 in 10.0 mi NW 16.1 mph 20.7 mph N/A   Overcast
7:55 AM 28.4 °F 16.2 °F 22.1 °F 77% 30.20 in 10.0 mi NNW 17.3 mph - N/A   Mostly Cloudy
8:15 AM 28.0 °F 16.5 °F 22.3 °F 79% 30.21 in 10.0 mi NW 15.0 mph 21.9 mph N/A   Overcast
8:35 AM 27.1 °F 15.9 °F 18.9 °F 71% 30.22 in 10.0 mi NW 13.8 mph 18.4 mph N/A   Scattered Clouds
8:55 AM 27.3 °F 15.2 °F 17.2 °F 66% 30.23 in 10.0 mi NW 16.1 mph 23.0 mph N/A   Clear
9:15 AM 27.5 °F 16.3 °F 17.8 °F 67% 30.23 in 10.0 mi NW 13.8 mph 19.6 mph N/A   Clear
9:35 AM 27.5 °F 15.9 °F 16.9 °F 64% 30.24 in 10.0 mi NW 15.0 mph 18.4 mph N/A   Clear
9:55 AM 28.0 °F 16.5 °F 17.1 °F 63% 30.24 in 10.0 mi NW 15.0 mph - N/A   Clear
10:15 AM 29.5 °F 19.9 °F 18.1 °F 63% 30.24 in 10.0 mi NW 11.5 mph 20.7 mph N/A   Clear
10:35 AM 29.8 °F 18.9 °F 18.3 °F 62% 30.25 in 10.0 mi NW 15.0 mph 19.6 mph N/A   Clear
10:55 AM 29.8 °F 19.3 °F 17.2 °F 59% 30.25 in 10.0 mi WNW 13.8 mph 18.4 mph N/A   Clear
11:15 AM 30.4 °F 19.5 °F 16.3 °F 56% 30.25 in 10.0 mi NW 15.0 mph 19.6 mph N/A   Clear
11:35 AM 31.5 °F 22.3 °F 17.6 °F 57% 30.24 in 10.0 mi NW 11.5 mph - N/A   Clear
11:55 AM 31.8 °F 21.4 °F 17.1 °F 55% 30.24 in 10.0 mi NW 15.0 mph 20.7 mph N/A   Clear
12:15 PM 32.0 °F 23.6 °F 16.5 °F 53% 30.24 in 10.0 mi NW 10.4 mph - N/A   Clear
12:55 PM 32.9 °F 23.7 °F 16.7 °F 51% 30.23 in 10.0 mi NW 12.7 mph - N/A   Clear
1:15 PM 32.9 °F 24.1 °F 15.3 °F 48% 30.22 in 10.0 mi NW 11.5 mph 18.4 mph N/A   Clear
1:35 PM 33.8 °F 23.9 °F 16.3 °F 49% 30.22 in 10.0 mi NW 15.0 mph 20.7 mph N/A   Clear
1:55 PM 33.8 °F 25.3 °F 15.6 °F 47% 30.22 in 10.0 mi NW 11.5 mph - N/A   Clear
2:15 PM 34.0 °F 25.0 °F 15.8 °F 47% 30.21 in 10.0 mi NW 12.7 mph 18.4 mph N/A   Clear
2:35 PM 34.7 °F 25.1 °F 15.6 °F 46% 30.22 in 10.0 mi NNW 15.0 mph 19.6 mph N/A   Clear
2:55 PM 34.3 °F 25.5 °F 15.6 °F 46% 30.22 in 10.0 mi WNW 12.7 mph 19.6 mph N/A   Clear
3:15 PM 34.7 °F 26.9 °F 16.0 °F 46% 30.22 in 10.0 mi NW 10.4 mph 16.1 mph N/A   Clear
3:35 PM 34.7 °F 28.1 °F 15.1 °F 45% 30.22 in 10.0 mi NW 8.1 mph 16.1 mph N/A   Clear
3:55 PM 34.7 °F 27.5 °F 15.8 °F 46% 30.22 in 10.0 mi NW 9.2 mph - N/A   Clear
4:15 PM 34.3 °F 27.0 °F 16.0 °F 47% 30.22 in 10.0 mi NW 9.2 mph - N/A   Clear
4:35 PM 33.8 °F 26.4 °F 15.1 °F 46% 30.23 in 10.0 mi WNW 9.2 mph - N/A   Clear
4:55 PM 33.4 °F 26.6 °F 16.2 °F 49% 30.23 in 10.0 mi NW 8.1 mph - N/A   Clear
5:15 PM 32.9 °F 26.7 °F 14.9 °F 48% 30.22 in 10.0 mi NW 6.9 mph - N/A   Clear
5:35 PM 31.8 °F 25.4 °F 18.3 °F 57% 30.23 in 10.0 mi NW 6.9 mph - N/A   Clear
5:55 PM 31.1 °F 26.4 °F 18.3 °F 59% 30.23 in 10.0 mi NW 4.6 mph - N/A   Clear
6:15 PM 30.7 °F 26.0 °F 18.5 °F 60% 30.23 in 10.0 mi NW 4.6 mph - N/A   Clear
6:35 PM 30.2 °F 26.7 °F 19.8 °F 65% 30.23 in 10.0 mi NW 3.5 mph - N/A   Clear
6:55 PM 30.2 °F - 19.6 °F 65% 30.23 in 7.0 mi Calm Calm - N/A   Clear
7:15 PM 29.3 °F 25.6 °F 21.7 °F 73% 30.23 in 10.0 mi West 3.5 mph - N/A   Clear
7:35 PM 29.7 °F 26.1 °F 21.9 °F 73% 30.23 in 10.0 mi West 3.5 mph - N/A   Clear
7:55 PM 29.1 °F - 23.0 °F 78% 30.22 in 10.0 mi Calm Calm - N/A   Scattered Clouds
8:15 PM 29.3 °F 25.6 °F 21.7 °F 73% 30.22 in 10.0 mi West 3.5 mph - N/A   Mostly Cloudy
8:35 PM 29.8 °F 26.3 °F 21.6 °F 71% 30.22 in 10.0 mi WNW 3.5 mph - N/A   Mostly Cloudy
8:55 PM 29.8 °F 23.9 °F 20.8 °F 69% 30.22 in 10.0 mi WNW 5.8 mph - N/A   Overcast
9:15 PM 30.0 °F 25.2 °F 19.8 °F 66% 30.23 in 10.0 mi NW 4.6 mph - N/A   Overcast
9:35 PM 29.7 °F 20.1 °F 20.3 °F 68% 30.23 in 10.0 mi NW 11.5 mph - N/A   Overcast
9:55 PM 28.9 °F 17.3 °F 17.2 °F 62% 30.23 in 10.0 mi NNW 16.1 mph - N/A   Mostly Cloudy
10:15 PM 27.7 °F 16.1 °F 17.8 °F 66% 30.23 in 10.0 mi NNW 15.0 mph - N/A   Scattered Clouds
10:35 PM 27.1 °F 15.4 °F 17.1 °F 66% 30.22 in 10.0 mi NNW 15.0 mph - N/A   Scattered Clouds
10:55 PM 26.4 °F 14.0 °F 17.6 °F 69% 30.22 in 10.0 mi NNW 16.1 mph - N/A   Clear
11:15 PM 25.7 °F 12.3 °F 17.4 °F 71% 30.22 in 10.0 mi North 18.4 mph - N/A   Clear
11:35 PM 25.2 °F 12.9 °F 17.4 °F 72% 30.22 in 10.0 mi NNW 15.0 mph - N/A   Clear
11:55 PM 24.8 °F 11.9 °F 16.5 °F 71% 30.22 in 10.0 mi North 16.1 mph - N/A   Clear